Location: Unspecified
(35.6961°N, 0.0000°E)
Time: 22:01:10
(UTC+00:00)

ISS - Pass Details

Date: 28 April 2019
Orbit: 408 x 410 km, 51.6° (Epoch: 21 May)

Event Time Altitude Azimuth Distance (km) Brightness Sun altitude
Exits shadow 03:22:16 13° 142° (SE) 1,285 -1.3 -20.6°
Maximum altitude 03:22:58 14° 128° (SE) 1,252 -1.2 -20.5°
Drops below altitude 10° 03:24:47 10° 94° (E) 1,478 -0.3 -20.2°
Sets 03:27:35 0° 68° (ENE) 2,338 1.5 -19.8°
